Time,TemperatureF,DewpointF,PressureIn,WindDirection,WindDirectionDegrees,WindSpeedMPH,WindSpeedGustMPH,Humidity,HourlyPrecipIn,Conditions,Clouds,dailyrainin,SoftwareType,DateUTC
2013-01-08 00:00:00,38.5,25.4,28.14,East,90,1.6,1.6,59,0.00,,---,0.00,VWS V14.01,2013-01-08 05:00:00,
2013-01-08 00:02:00,38.5,25.0,28.14,SE,135,2.5,3.8,58,0.00,,---,0.00,VWS V14.01,2013-01-08 05:02:00,
2013-01-08 00:07:00,38.7,25.2,28.14,SSE,158,2.2,2.5,58,0.00,,---,0.00,VWS V14.01,2013-01-08 05:07:00,
2013-01-08 00:12:00,38.5,25.0,28.14,SE,135,2.7,2.7,58,0.00,,---,0.00,VWS V14.01,2013-01-08 05:12:00,
2013-01-08 00:17:00,38.3,24.8,28.14,SE,135,2.5,2.7,58,0.00,,---,0.00,VWS V14.01,2013-01-08 05:17:00,
2013-01-08 00:22:00,38.7,25.2,28.14,East,90,0.9,0.9,58,0.00,,---,0.00,VWS V14.01,2013-01-08 05:22:00,
2013-01-08 00:27:00,38.7,25.2,28.14,East,90,1.3,2.5,58,0.00,,---,0.00,VWS V14.01,2013-01-08 05:27:00,
2013-01-08 00:32:00,38.7,25.2,28.14,SSE,158,0.0,0.0,58,0.00,,---,0.00,VWS V14.01,2013-01-08 05:32:00,
2013-01-08 00:37:00,38.7,25.2,28.14,ESE,112,2.0,2.0,58,0.00,,---,0.00,VWS V14.01,2013-01-08 05:37:00,
2013-01-08 00:42:00,38.5,25.0,28.14,East,90,3.6,3.6,58,0.00,,---,0.00,VWS V14.01,2013-01-08 05:42:00,
2013-01-08 00:47:00,38.3,24.8,28.14,SE,135,3.6,3.6,58,0.00,,---,0.00,VWS V14.01,2013-01-08 05:47:00,
2013-01-08 00:52:00,38.3,24.8,28.14,East,90,3.4,3.4,58,0.00,,---,0.00,VWS V14.01,2013-01-08 05:52:00,
2013-01-08 00:57:00,38.3,24.8,28.14,SW,225,4.7,4.7,58,0.00,,---,0.00,VWS V14.01,2013-01-08 05:57:00,
2013-01-08 01:02:00,37.9,24.5,28.14,SE,135,1.6,2.0,58,0.00,,---,0.00,VWS V14.01,2013-01-08 06:02:00,
2013-01-08 01:07:00,37.9,24.5,28.14,East,90,1.1,1.1,58,0.00,,---,0.00,VWS V14.01,2013-01-08 06:07:00,
2013-01-08 01:12:00,37.9,24.5,28.14,ESE,112,0.0,1.1,58,0.00,,---,0.00,VWS V14.01,2013-01-08 06:12:00,
2013-01-08 01:17:00,37.8,24.7,28.14,NNW,338,2.0,2.2,59,0.00,,---,0.00,VWS V14.01,2013-01-08 06:17:00,
2013-01-08 01:23:00,37.9,24.9,28.14,East,90,2.2,3.1,59,0.00,,---,0.00,VWS V14.01,2013-01-08 06:23:00,
2013-01-08 01:28:00,37.8,24.7,28.14,NW,315,2.2,3.4,59,0.00,,---,0.00,VWS V14.01,2013-01-08 06:28:00,
2013-01-08 01:33:00,37.9,24.9,28.14,SSW,202,0.9,2.5,59,0.00,,---,0.00,VWS V14.01,2013-01-08 06:33:00,
2013-01-08 01:38:00,38.3,25.2,28.14,SSW,202,4.0,4.5,59,0.00,,---,0.00,VWS V14.01,2013-01-08 06:38:00,
2013-01-08 01:43:00,38.1,25.1,28.14,South,180,0.0,0.0,59,0.00,,---,0.00,VWS V14.01,2013-01-08 06:43:00,
2013-01-08 01:48:00,38.1,25.1,28.14,SSW,202,0.0,0.0,59,0.00,,---,0.00,VWS V14.01,2013-01-08 06:48:00,
2013-01-08 01:53:00,37.8,24.7,28.14,ENE,68,1.6,3.1,59,0.00,,---,0.00,VWS V14.01,2013-01-08 06:53:00,
2013-01-08 01:58:00,37.8,24.7,28.14,SE,135,2.5,3.4,59,0.00,,---,0.00,VWS V14.01,2013-01-08 06:58:00,
2013-01-08 02:03:00,37.8,25.1,28.14,East,90,1.3,1.3,60,0.00,,---,0.00,VWS V14.01,2013-01-08 07:03:00,
2013-01-08 02:08:00,37.6,25.0,28.14,ESE,112,1.6,1.6,60,0.00,,---,0.00,VWS V14.01,2013-01-08 07:08:00,
2013-01-08 02:13:00,37.6,25.0,28.14,East,90,0.0,4.7,60,0.00,,---,0.00,VWS V14.01,2013-01-08 07:13:00,
2013-01-08 02:18:00,37.6,25.4,28.14,ENE,68,2.7,2.7,61,0.00,,---,0.00,VWS V14.01,2013-01-08 07:18:00,
2013-01-08 02:24:00,37.6,25.4,28.14,East,90,2.7,3.1,61,0.00,,---,0.00,VWS V14.01,2013-01-08 07:24:00,
2013-01-08 02:29:00,37.6,25.4,28.14,SSE,158,0.9,1.3,61,0.00,,---,0.00,VWS V14.01,2013-01-08 07:29:00,
2013-01-08 02:34:00,37.6,25.4,28.14,East,90,0.0,2.5,61,0.00,,---,0.00,VWS V14.01,2013-01-08 07:34:00,
2013-01-08 02:39:00,37.6,25.4,28.14,North,0,0.0,0.9,61,0.00,,---,0.00,VWS V14.01,2013-01-08 07:39:00,
2013-01-08 02:44:00,37.4,25.2,28.14,SSW,202,0.9,2.0,61,0.00,,---,0.00,VWS V14.01,2013-01-08 07:44:00,
2013-01-08 02:49:00,37.4,25.2,28.14,East,90,2.5,2.5,61,0.00,,---,0.00,VWS V14.01,2013-01-08 07:49:00,
2013-01-08 02:54:00,37.4,25.2,28.14,NNW,338,2.5,2.5,61,0.00,,---,0.00,VWS V14.01,2013-01-08 07:54:00,
2013-01-08 02:59:00,37.2,25.4,28.14,ENE,68,0.9,2.7,62,0.00,,---,0.00,VWS V14.01,2013-01-08 07:59:00,
2013-01-08 03:04:00,37.2,25.4,28.14,SSE,158,2.9,2.9,62,0.00,,---,0.00,VWS V14.01,2013-01-08 08:04:00,
2013-01-08 03:09:00,37.2,25.4,28.14,West,270,1.6,1.6,62,0.00,,---,0.00,VWS V14.01,2013-01-08 08:09:00,
2013-01-08 03:14:00,37.0,25.2,28.14,ESE,112,0.0,0.0,62,0.00,,---,0.00,VWS V14.01,2013-01-08 08:14:00,
2013-01-08 03:20:00,36.9,25.1,28.14,SSE,158,1.1,1.1,62,0.00,,---,0.00,VWS V14.01,2013-01-08 08:20:00,
2013-01-08 03:25:00,37.0,25.6,28.14,SE,135,0.0,0.0,63,0.00,,---,0.00,VWS V14.01,2013-01-08 08:25:00,
2013-01-08 03:30:00,36.9,25.5,28.14,ESE,112,1.1,4.7,63,0.00,,---,0.00,VWS V14.01,2013-01-08 08:30:00,
2013-01-08 03:35:00,36.9,25.5,28.14,SW,225,1.3,1.3,63,0.00,,---,0.00,VWS V14.01,2013-01-08 08:35:00,
2013-01-08 03:40:00,36.9,25.8,28.14,SSE,158,2.0,2.2,64,0.00,,---,0.00,VWS V14.01,2013-01-08 08:40:00,
2013-01-08 03:45:00,36.9,25.8,28.14,ESE,112,0.0,0.0,64,0.00,,---,0.00,VWS V14.01,2013-01-08 08:45:00,
2013-01-08 03:50:00,37.0,26.0,28.14,East,90,0.9,2.2,64,0.00,,---,0.00,VWS V14.01,2013-01-08 08:50:00,
2013-01-08 03:55:00,36.9,25.8,28.14,East,90,2.2,4.3,64,0.00,,---,0.00,VWS V14.01,2013-01-08 08:55:00,
2013-01-08 04:00:00,36.9,25.8,28.14,SSW,202,2.2,6.0,64,0.00,,---,0.00,VWS V14.01,2013-01-08 09:00:00,
2013-01-08 04:05:00,36.9,25.8,28.14,SE,135,2.2,3.8,64,0.00,,---,0.00,VWS V14.01,2013-01-08 09:05:00,
2013-01-08 04:10:00,37.2,26.5,28.14,NE,45,3.1,3.1,65,0.00,,---,0.00,VWS V14.01,2013-01-08 09:10:00,
2013-01-08 04:16:00,37.2,26.5,28.14,East,90,2.2,2.9,65,0.00,,---,0.00,VWS V14.01,2013-01-08 09:16:00,
2013-01-08 04:21:00,37.0,26.4,28.14,SSE,158,3.4,3.4,65,0.00,,---,0.00,VWS V14.01,2013-01-08 09:21:00,
2013-01-08 04:26:00,37.0,26.4,28.14,SSW,202,0.0,1.1,65,0.00,,---,0.00,VWS V14.01,2013-01-08 09:26:00,
2013-01-08 04:31:00,37.0,26.4,28.14,ESE,112,0.0,3.4,65,0.00,,---,0.00,VWS V14.01,2013-01-08 09:31:00,
2013-01-08 04:36:00,37.0,26.4,28.14,SE,135,1.6,3.1,65,0.00,,---,0.00,VWS V14.01,2013-01-08 09:36:00,
2013-01-08 04:41:00,37.0,26.8,28.14,East,90,0.9,0.9,66,0.00,,---,0.00,VWS V14.01,2013-01-08 09:41:00,
2013-01-08 04:46:00,37.0,26.8,28.14,SE,135,1.6,1.6,66,0.00,,---,0.00,VWS V14.01,2013-01-08 09:46:00,
2013-01-08 04:51:00,36.9,26.6,28.11,North,0,2.9,3.4,66,0.00,,---,0.00,VWS V14.01,2013-01-08 09:51:00,
2013-01-08 04:56:00,37.0,26.8,28.11,East,90,3.1,4.9,66,0.00,,---,0.00,VWS V14.01,2013-01-08 09:56:00,
2013-01-08 05:01:00,37.2,26.9,28.11,South,180,1.6,7.2,66,0.00,,---,0.00,VWS V14.01,2013-01-08 10:01:00,
2013-01-08 05:06:00,37.0,26.8,28.11,SSE,158,0.0,1.6,66,0.00,,---,0.00,VWS V14.01,2013-01-08 10:06:00,
2013-01-08 05:11:00,36.9,26.6,28.11,WNW,292,0.9,2.5,66,0.00,,---,0.00,VWS V14.01,2013-01-08 10:11:00,
2013-01-08 05:16:00,37.0,27.1,28.11,SSW,202,0.0,0.0,67,0.00,,---,0.00,VWS V14.01,2013-01-08 10:16:00,
2013-01-08 05:21:00,36.9,26.9,28.14,WNW,292,1.6,3.1,67,0.00,,---,0.00,VWS V14.01,2013-01-08 10:21:00,
2013-01-08 05:26:00,36.9,26.9,28.14,ESE,112,0.0,3.6,67,0.00,,---,0.00,VWS V14.01,2013-01-08 10:26:00,
2013-01-08 05:31:00,36.9,27.3,28.14,East,90,0.0,0.9,68,0.00,,---,0.00,VWS V14.01,2013-01-08 10:31:00,
2013-01-08 05:36:00,36.7,27.1,28.14,East,90,1.1,1.1,68,0.00,,---,0.00,VWS V14.01,2013-01-08 10:36:00,
2013-01-08 05:41:00,36.9,27.3,28.14,WSW,248,0.9,2.5,68,0.00,,---,0.00,VWS V14.01,2013-01-08 10:41:00,
2013-01-08 05:46:00,36.9,27.3,28.14,NE,45,1.1,1.1,68,0.00,,---,0.00,VWS V14.01,2013-01-08 10:46:00,
2013-01-08 05:51:00,36.9,27.3,28.14,SSE,158,0.0,0.9,68,0.00,,---,0.00,VWS V14.01,2013-01-08 10:51:00,
2013-01-08 05:56:00,36.9,27.3,28.14,ESE,112,1.3,2.5,68,0.00,,---,0.00,VWS V14.01,2013-01-08 10:56:00,
2013-01-08 06:01:00,37.0,27.8,28.14,SSW,202,0.0,0.9,69,0.00,,---,0.00,VWS V14.01,2013-01-08 11:01:00,
2013-01-08 06:06:00,36.9,27.3,28.14,East,90,0.9,0.9,68,0.00,,---,0.00,VWS V14.01,2013-01-08 11:06:00,
2013-01-08 06:12:00,36.7,27.1,28.14,East,90,2.7,2.7,68,0.00,,---,0.00,VWS V14.01,2013-01-08 11:12:00,
2013-01-08 06:17:00,36.7,27.5,28.14,SSW,202,0.0,2.0,69,0.00,,---,0.00,VWS V14.01,2013-01-08 11:17:00,
2013-01-08 06:22:00,36.9,27.7,28.14,SE,135,0.0,0.9,69,0.00,,---,0.00,VWS V14.01,2013-01-08 11:22:00,
2013-01-08 06:27:00,36.7,27.5,28.14,South,180,0.0,3.6,69,0.00,,---,0.00,VWS V14.01,2013-01-08 11:27:00,
2013-01-08 06:32:00,36.7,27.5,28.14,SE,135,0.0,1.1,69,0.00,,---,0.00,VWS V14.01,2013-01-08 11:32:00,
2013-01-08 06:37:00,36.7,27.5,28.14,SSE,158,0.0,0.0,69,0.00,,---,0.00,VWS V14.01,2013-01-08 11:37:00,
2013-01-08 06:42:00,36.7,27.5,28.14,South,180,0.0,0.0,69,0.00,,---,0.00,VWS V14.01,2013-01-08 11:42:00,
2013-01-08 06:47:00,36.7,27.5,28.14,NW,315,0.0,0.0,69,0.00,,---,0.00,VWS V14.01,2013-01-08 11:47:00,
2013-01-08 06:52:00,36.5,27.3,28.14,SE,135,0.0,1.6,69,0.00,,---,0.00,VWS V14.01,2013-01-08 11:52:00,
2013-01-08 06:57:00,36.7,27.5,28.14,East,90,0.0,0.0,69,0.00,,---,0.00,VWS V14.01,2013-01-08 11:57:00,
2013-01-08 07:02:00,36.5,27.3,28.14,SW,225,0.0,0.9,69,0.00,,---,0.00,VWS V14.01,2013-01-08 12:02:00,
2013-01-08 07:07:00,36.5,27.7,28.14,SE,135,0.0,0.0,70,0.00,,---,0.00,VWS V14.01,2013-01-08 12:07:00,
2013-01-08 07:13:00,36.5,27.3,28.14,WSW,248,0.0,0.9,69,0.00,,---,0.00,VWS V14.01,2013-01-08 12:13:00,
2013-01-08 07:18:00,36.3,27.5,28.14,WNW,292,0.0,1.1,70,0.00,,---,0.00,VWS V14.01,2013-01-08 12:18:00,
2013-01-08 07:23:00,36.3,27.5,28.14,ESE,112,1.6,1.6,70,0.00,,---,0.00,VWS V14.01,2013-01-08 12:23:00,
2013-01-08 07:28:00,36.5,28.0,28.14,NE,45,0.0,0.9,71,0.00,,---,0.00,VWS V14.01,2013-01-08 12:28:00,
2013-01-08 07:33:00,36.5,28.0,28.17,NW,315,0.0,0.0,71,0.00,,---,0.00,VWS V14.01,2013-01-08 12:33:00,
2013-01-08 07:38:00,36.3,27.5,28.17,SSE,158,0.0,0.0,70,0.00,,---,0.00,VWS V14.01,2013-01-08 12:38:00,
2013-01-08 07:43:00,36.3,27.5,28.17,SSE,158,0.0,0.0,70,0.00,,---,0.00,VWS V14.01,2013-01-08 12:43:00,
2013-01-08 07:48:00,36.7,27.8,28.17,SSE,158,0.9,0.9,70,0.00,,---,0.00,VWS V14.01,2013-01-08 12:48:00,
2013-01-08 07:53:00,36.9,28.0,28.17,SSE,158,0.0,0.0,70,0.00,,---,0.00,VWS V14.01,2013-01-08 12:53:00,
2013-01-08 07:58:00,36.9,28.0,28.17,WSW,248,0.0,1.1,70,0.00,,---,0.00,VWS V14.01,2013-01-08 12:58:00,
2013-01-08 08:03:00,36.9,28.0,28.17,SSW,202,0.0,0.0,70,0.00,,---,0.00,VWS V14.01,2013-01-08 13:03:00,
2013-01-08 08:08:00,37.0,28.2,28.17,SSE,158,0.0,0.0,70,0.00,,---,0.00,VWS V14.01,2013-01-08 13:08:00,
2013-01-08 08:14:00,36.9,28.0,28.17,WSW,248,0.0,0.0,70,0.00,,---,0.00,VWS V14.01,2013-01-08 13:14:00,
2013-01-08 08:19:00,36.9,28.0,28.17,NNE,22,0.0,0.0,70,0.00,,---,0.00,VWS V14.01,2013-01-08 13:19:00,
2013-01-08 08:24:00,36.9,28.0,28.17,SSW,202,0.0,0.0,70,0.00,,---,0.00,VWS V14.01,2013-01-08 13:24:00,
2013-01-08 08:29:00,37.0,28.2,28.17,ESE,112,0.0,0.0,70,0.00,,---,0.00,VWS V14.01,2013-01-08 13:29:00,
2013-01-08 08:34:00,37.4,28.5,28.17,South,180,0.0,0.0,70,0.00,,---,0.00,VWS V14.01,2013-01-08 13:34:00,
2013-01-08 08:39:00,37.6,28.7,28.17,South,180,0.0,0.9,70,0.00,,---,0.00,VWS V14.01,2013-01-08 13:39:00,
2013-01-08 08:44:00,37.9,29.0,28.17,WSW,248,0.0,0.0,70,0.00,,---,0.00,VWS V14.01,2013-01-08 13:44:00,
2013-01-08 08:49:00,38.3,29.0,28.20,WSW,248,0.0,0.0,69,0.00,,---,0.00,VWS V14.01,2013-01-08 13:49:00,
2013-01-08 08:54:00,38.8,29.5,28.20,WSW,248,0.0,0.0,69,0.00,,---,0.00,VWS V14.01,2013-01-08 13:54:00,
2013-01-08 08:59:00,39.2,29.5,28.20,SSW,202,0.0,0.0,68,0.00,,---,0.00,VWS V14.01,2013-01-08 13:59:00,
2013-01-08 09:04:00,39.4,29.7,28.20,North,0,0.0,1.1,68,0.00,,---,0.00,VWS V14.01,2013-01-08 14:04:00,
2013-01-08 09:09:00,39.7,29.7,28.20,East,90,0.0,1.3,67,0.00,,---,0.00,VWS V14.01,2013-01-08 14:09:00,
2013-01-08 09:14:00,40.3,29.8,28.20,WNW,292,0.0,0.0,66,0.00,,---,0.00,VWS V14.01,2013-01-08 14:14:00,
2013-01-08 09:19:00,41.0,30.1,28.20,SSE,158,0.0,1.1,65,0.00,,---,0.00,VWS V14.01,2013-01-08 14:19:00,
2013-01-08 09:24:00,41.4,29.7,28.20,SW,225,0.0,1.6,63,0.00,,---,0.00,VWS V14.01,2013-01-08 14:24:00,
2013-01-08 09:29:00,41.5,29.9,28.20,ESE,112,3.4,4.0,63,0.00,,---,0.00,VWS V14.01,2013-01-08 14:29:00,
2013-01-08 09:34:00,41.9,29.5,28.20,East,90,0.9,1.6,61,0.00,,---,0.00,VWS V14.01,2013-01-08 14:34:00,
2013-01-08 09:39:00,42.3,29.8,28.20,WSW,248,0.9,0.9,61,0.00,,---,0.00,VWS V14.01,2013-01-08 14:39:00,
2013-01-08 09:44:00,42.4,29.5,28.20,East,90,0.0,1.6,60,0.00,,---,0.00,VWS V14.01,2013-01-08 14:44:00,
2013-01-08 09:49:00,43.2,29.8,28.20,SE,135,1.6,2.0,59,0.00,,---,0.00,VWS V14.01,2013-01-08 14:49:00,
2013-01-08 09:54:00,43.7,29.9,28.20,WSW,248,0.0,2.9,58,0.00,,---,0.00,VWS V14.01,2013-01-08 14:54:00,
2013-01-08 09:59:00,44.1,30.2,28.20,East,90,2.0,2.0,58,0.00,,---,0.00,VWS V14.01,2013-01-08 14:59:00,
2013-01-08 10:04:00,44.4,30.2,28.20,SW,225,2.9,2.9,57,0.00,,---,0.00,VWS V14.01,2013-01-08 15:04:00,
2013-01-08 10:09:00,44.4,30.2,28.20,South,180,1.1,1.1,57,0.00,,---,0.00,VWS V14.01,2013-01-08 15:09:00,
2013-01-08 10:14:00,44.6,29.9,28.20,SSW,202,0.0,1.1,56,0.00,,---,0.00,VWS V14.01,2013-01-08 15:14:00,
2013-01-08 10:19:00,44.8,30.1,28.20,SSW,202,0.0,0.0,56,0.00,,---,0.00,VWS V14.01,2013-01-08 15:19:00,
2013-01-08 10:24:00,45.3,30.1,28.20,South,180,2.9,2.9,55,0.00,,---,0.00,VWS V14.01,2013-01-08 15:24:00,
2013-01-08 10:29:00,45.5,30.3,28.20,SE,135,0.0,2.7,55,0.00,,---,0.00,VWS V14.01,2013-01-08 15:29:00,
2013-01-08 10:34:00,45.9,30.2,28.23,East,90,4.7,4.7,54,0.00,,---,0.00,VWS V14.01,2013-01-08 15:34:00,
2013-01-08 10:39:00,46.0,30.3,28.23,WSW,248,0.0,1.6,54,0.00,,---,0.00,VWS V14.01,2013-01-08 15:39:00,
2013-01-08 10:44:00,46.8,30.5,28.23,SSW,202,0.0,1.3,53,0.00,,---,0.00,VWS V14.01,2013-01-08 15:44:00,
2013-01-08 10:49:00,47.7,31.4,28.23,SW,225,0.0,0.9,53,0.00,,---,0.00,VWS V14.01,2013-01-08 15:49:00,
2013-01-08 10:54:00,47.8,31.5,28.23,NW,315,0.0,1.6,53,0.00,,---,0.00,VWS V14.01,2013-01-08 15:54:00,
2013-01-08 11:00:00,48.6,31.8,28.23,South,180,1.3,2.9,52,0.00,,---,0.00,VWS V14.01,2013-01-08 16:00:00,
2013-01-08 11:05:00,48.7,31.9,28.20,SSE,158,0.0,1.3,52,0.00,,---,0.00,VWS V14.01,2013-01-08 16:05:00,
2013-01-08 11:10:00,49.8,32.4,28.20,ESE,112,3.1,4.9,51,0.00,,---,0.00,VWS V14.01,2013-01-08 16:10:00,
2013-01-08 11:15:00,49.6,31.8,28.20,ESE,112,2.9,4.0,50,0.00,,---,0.00,VWS V14.01,2013-01-08 16:15:00,
2013-01-08 11:20:00,49.8,32.4,28.20,WNW,292,3.8,3.8,51,0.00,,---,0.00,VWS V14.01,2013-01-08 16:20:00,
2013-01-08 11:25:00,50.5,32.6,28.20,South,180,2.7,3.1,50,0.00,,---,0.00,VWS V14.01,2013-01-08 16:25:00,
2013-01-08 11:30:00,50.4,32.4,28.20,East,90,2.9,2.9,50,0.00,,---,0.00,VWS V14.01,2013-01-08 16:30:00,
2013-01-08 11:35:00,50.4,32.4,28.20,SE,135,2.9,2.9,50,0.00,,---,0.00,VWS V14.01,2013-01-08 16:35:00,
2013-01-08 11:40:00,50.7,32.8,28.20,West,270,1.6,2.7,50,0.00,,---,0.00,VWS V14.01,2013-01-08 16:40:00,
2013-01-08 11:45:00,51.1,32.6,28.20,South,180,2.5,2.9,49,0.00,,---,0.00,VWS V14.01,2013-01-08 16:45:00,
2013-01-08 11:50:00,50.7,32.3,28.20,ESE,112,2.0,2.7,49,0.00,,---,0.00,VWS V14.01,2013-01-08 16:50:00,
2013-01-08 11:55:00,50.9,32.9,28.20,ESE,112,2.9,2.9,50,0.00,,---,0.00,VWS V14.01,2013-01-08 16:55:00,
2013-01-08 12:00:00,51.3,32.8,28.20,ESE,112,2.0,3.8,49,0.00,,---,0.00,VWS V14.01,2013-01-08 17:00:00,
2013-01-08 12:05:00,51.6,33.6,28.20,ESE,112,0.9,2.2,50,0.00,,---,0.00,VWS V14.01,2013-01-08 17:05:00,
2013-01-08 12:10:00,52.2,33.6,28.20,SSE,158,1.3,2.5,49,0.00,,---,0.00,VWS V14.01,2013-01-08 17:10:00,
2013-01-08 12:15:00,51.6,33.1,28.20,South,180,1.3,2.5,49,0.00,,---,0.00,VWS V14.01,2013-01-08 17:15:00,
2013-01-08 12:20:00,51.6,33.6,28.20,NE,45,1.6,1.6,50,0.00,,---,0.00,VWS V14.01,2013-01-08 17:20:00,
2013-01-08 12:25:00,51.6,33.6,28.20,South,180,2.9,2.9,50,0.00,,---,0.00,VWS V14.01,2013-01-08 17:25:00,
2013-01-08 12:30:00,51.6,33.1,28.20,SSE,158,1.6,2.9,49,0.00,,---,0.00,VWS V14.01,2013-01-08 17:30:00,
2013-01-08 12:35:00,52.2,33.6,28.20,SE,135,2.2,2.9,49,0.00,,---,0.00,VWS V14.01,2013-01-08 17:35:00,
2013-01-08 12:40:00,52.5,33.9,28.20,South,180,0.0,2.0,49,0.00,,---,0.00,VWS V14.01,2013-01-08 17:40:00,
2013-01-08 12:45:00,52.5,33.9,28.20,SSW,202,1.1,2.2,49,0.00,,---,0.00,VWS V14.01,2013-01-08 17:45:00,
2013-01-08 12:50:00,53.2,34.6,28.17,East,90,0.0,1.1,49,0.00,,---,0.00,VWS V14.01,2013-01-08 17:50:00,
2013-01-08 12:55:00,53.2,34.6,28.17,SSE,158,4.3,4.3,49,0.00,,---,0.00,VWS V14.01,2013-01-08 17:55:00,
2013-01-08 13:00:00,53.1,34.4,28.17,South,180,1.6,1.6,49,0.00,,---,0.00,VWS V14.01,2013-01-08 18:00:00,
2013-01-08 13:05:00,53.4,34.8,28.17,ENE,68,1.3,1.3,49,0.00,,---,0.00,VWS V14.01,2013-01-08 18:05:00,
2013-01-08 13:10:00,52.9,34.3,28.17,East,90,0.9,0.9,49,0.00,,---,0.00,VWS V14.01,2013-01-08 18:10:00,
2013-01-08 13:15:00,52.7,34.1,28.17,SE,135,2.9,4.7,49,0.00,,---,0.00,VWS V14.01,2013-01-08 18:15:00,
2013-01-08 13:20:00,52.7,34.1,28.17,NE,45,3.6,3.6,49,0.00,,---,0.00,VWS V14.01,2013-01-08 18:20:00,
2013-01-08 13:25:00,52.9,34.3,28.17,East,90,2.0,2.5,49,0.00,,---,0.00,VWS V14.01,2013-01-08 18:25:00,
2013-01-08 13:30:00,53.1,34.4,28.17,WNW,292,4.0,4.0,49,0.00,,---,0.00,VWS V14.01,2013-01-08 18:30:00,
2013-01-08 13:35:00,53.2,34.6,28.14,SSE,158,0.0,2.2,49,0.00,,---,0.00,VWS V14.01,2013-01-08 18:35:00,
2013-01-08 13:40:00,53.8,35.1,28.14,East,90,4.0,4.0,49,0.00,,---,0.00,VWS V14.01,2013-01-08 18:40:00,
2013-01-08 13:45:00,53.8,35.1,28.14,South,180,0.0,1.3,49,0.00,,---,0.00,VWS V14.01,2013-01-08 18:45:00,
2013-01-08 13:50:00,53.6,34.9,28.17,SSW,202,0.0,0.0,49,0.00,,---,0.00,VWS V14.01,2013-01-08 18:50:00,
2013-01-08 13:55:00,54.0,35.2,28.17,NE,45,0.0,2.5,49,0.00,,---,0.00,VWS V14.01,2013-01-08 18:55:00,
2013-01-08 14:00:00,53.6,34.4,28.17,ESE,112,6.0,6.0,48,0.00,,---,0.00,VWS V14.01,2013-01-08 19:00:00,
2013-01-08 14:05:00,53.2,34.6,28.17,SSW,202,1.3,1.3,49,0.00,,---,0.00,VWS V14.01,2013-01-08 19:05:00,
2013-01-08 14:10:00,53.1,34.4,28.17,WSW,248,3.4,3.4,49,0.00,,---,0.00,VWS V14.01,2013-01-08 19:10:00,
2013-01-08 14:15:00,52.5,33.9,28.17,South,180,1.3,2.5,49,0.00,,---,0.00,VWS V14.01,2013-01-08 19:15:00,
2013-01-08 14:20:00,53.1,34.9,28.17,West,270,2.5,2.9,50,0.00,,---,0.00,VWS V14.01,2013-01-08 19:20:00,
2013-01-08 14:25:00,52.5,34.4,28.17,WSW,248,0.0,0.0,50,0.00,,---,0.00,VWS V14.01,2013-01-08 19:25:00,
2013-01-08 14:30:00,52.0,33.9,28.17,NNE,22,2.0,3.4,50,0.00,,---,0.00,VWS V14.01,2013-01-08 19:30:00,
2013-01-08 14:36:00,52.2,34.6,28.17,East,90,1.1,3.1,51,0.00,,---,0.00,VWS V14.01,2013-01-08 19:36:00,
2013-01-08 14:41:00,52.7,35.1,28.17,ESE,112,0.0,0.9,51,0.00,,---,0.00,VWS V14.01,2013-01-08 19:41:00,
2013-01-08 14:46:00,53.6,35.4,28.17,ENE,68,2.0,2.5,50,0.00,,---,0.00,VWS V14.01,2013-01-08 19:46:00,
2013-01-08 14:51:00,53.2,35.1,28.14,SSE,158,2.5,2.9,50,0.00,,---,0.00,VWS V14.01,2013-01-08 19:51:00,
2013-01-08 14:56:00,53.6,35.4,28.14,SSW,202,0.0,0.0,50,0.00,,---,0.00,VWS V14.01,2013-01-08 19:56:00,
2013-01-08 15:01:00,53.6,35.4,28.14,SE,135,2.7,4.3,50,0.00,,---,0.00,VWS V14.01,2013-01-08 20:01:00,
2013-01-08 15:06:00,54.0,35.8,28.14,East,90,1.1,1.1,50,0.00,,---,0.00,VWS V14.01,2013-01-08 20:06:00,
2013-01-08 15:11:00,54.3,36.1,28.14,SSW,202,2.7,2.7,50,0.00,,---,0.00,VWS V14.01,2013-01-08 20:11:00,
2013-01-08 15:16:00,54.3,36.1,28.14,East,90,0.0,1.3,50,0.00,,---,0.00,VWS V14.01,2013-01-08 20:16:00,
2013-01-08 15:21:00,54.5,36.3,28.14,SSE,158,0.9,2.0,50,0.00,,---,0.00,VWS V14.01,2013-01-08 20:21:00,
2013-01-08 15:26:00,54.9,36.6,28.14,NNW,338,1.1,3.1,50,0.00,,---,0.00,VWS V14.01,2013-01-08 20:26:00,
2013-01-08 15:31:00,54.9,36.6,28.14,SW,225,2.0,3.1,50,0.00,,---,0.00,VWS V14.01,2013-01-08 20:31:00,
2013-01-08 15:36:00,54.9,37.1,28.17,East,90,1.1,1.1,51,0.00,,---,0.00,VWS V14.01,2013-01-08 20:36:00,
2013-01-08 15:41:00,54.9,37.1,28.17,SSW,202,0.0,0.0,51,0.00,,---,0.00,VWS V14.01,2013-01-08 20:41:00,
2013-01-08 15:46:00,55.9,38.1,28.17,WNW,292,0.0,0.9,51,0.00,,---,0.00,VWS V14.01,2013-01-08 20:46:00,
2013-01-08 15:51:00,55.9,37.6,28.17,SSE,158,2.0,3.8,50,0.00,,---,0.00,VWS V14.01,2013-01-08 20:51:00,
2013-01-08 15:56:00,54.7,36.4,28.17,South,180,1.1,1.6,50,0.00,,---,0.00,VWS V14.01,2013-01-08 20:56:00,
2013-01-08 16:01:00,54.0,36.3,28.17,ESE,112,0.0,2.0,51,0.00,,---,0.00,VWS V14.01,2013-01-08 21:01:00,
2013-01-08 16:07:00,53.8,36.1,28.17,East,90,2.7,2.7,51,0.00,,---,0.00,VWS V14.01,2013-01-08 21:07:00,
2013-01-08 16:12:00,53.2,36.1,28.17,East,90,2.9,3.4,52,0.00,,---,0.00,VWS V14.01,2013-01-08 21:12:00,
2013-01-08 16:17:00,53.4,36.7,28.14,ENE,68,0.0,0.0,53,0.00,,---,0.00,VWS V14.01,2013-01-08 21:17:00,
2013-01-08 16:22:00,53.4,36.7,28.14,SSW,202,0.0,2.0,53,0.00,,---,0.00,VWS V14.01,2013-01-08 21:22:00,
2013-01-08 16:27:00,52.9,36.7,28.14,South,180,2.2,2.2,54,0.00,,---,0.00,VWS V14.01,2013-01-08 21:27:00,
2013-01-08 16:32:00,52.3,36.2,28.17,South,180,0.0,1.6,54,0.00,,---,0.00,VWS V14.01,2013-01-08 21:32:00,
2013-01-08 16:37:00,52.0,35.9,28.17,SE,135,2.2,2.2,54,0.00,,---,0.00,VWS V14.01,2013-01-08 21:37:00,
2013-01-08 16:42:00,51.6,36.5,28.17,East,90,0.0,0.0,56,0.00,,---,0.00,VWS V14.01,2013-01-08 21:42:00,
2013-01-08 16:47:00,51.4,36.3,28.14,North,0,0.0,0.0,56,0.00,,---,0.00,VWS V14.01,2013-01-08 21:47:00,
2013-01-08 16:52:00,51.3,36.6,28.14,SE,135,0.0,0.0,57,0.00,,---,0.00,VWS V14.01,2013-01-08 21:52:00,
2013-01-08 16:57:00,50.9,36.2,28.14,East,90,0.0,0.0,57,0.00,,---,0.00,VWS V14.01,2013-01-08 21:57:00,
2013-01-08 17:02:00,50.5,35.9,28.14,East,90,1.6,1.6,57,0.00,,---,0.00,VWS V14.01,2013-01-08 22:02:00,
2013-01-08 17:07:00,50.0,35.8,28.14,ESE,112,0.0,0.0,58,0.00,,---,0.00,VWS V14.01,2013-01-08 22:07:00,
2013-01-08 17:13:00,49.6,35.9,28.14,ESE,112,0.0,0.0,59,0.00,,---,0.00,VWS V14.01,2013-01-08 22:13:00,
2013-01-08 17:18:00,49.5,36.2,28.14,ENE,68,0.0,0.0,60,0.00,,---,0.00,VWS V14.01,2013-01-08 22:18:00,
2013-01-08 17:23:00,49.1,35.8,28.14,ENE,68,0.0,0.0,60,0.00,,---,0.00,VWS V14.01,2013-01-08 22:23:00,
2013-01-08 17:28:00,48.7,35.5,28.14,NNE,22,0.0,0.0,60,0.00,,---,0.00,VWS V14.01,2013-01-08 22:28:00,
2013-01-08 17:33:00,48.4,35.6,28.14,East,90,0.0,1.6,61,0.00,,---,0.00,VWS V14.01,2013-01-08 22:33:00,
2013-01-08 17:38:00,48.4,36.0,28.14,East,90,0.0,0.0,62,0.00,,---,0.00,VWS V14.01,2013-01-08 22:38:00,
2013-01-08 17:43:00,48.4,36.0,28.14,ENE,68,0.0,0.0,62,0.00,,---,0.00,VWS V14.01,2013-01-08 22:43:00,
2013-01-08 17:48:00,47.7,36.1,28.17,East,90,0.0,0.0,64,0.00,,---,0.00,VWS V14.01,2013-01-08 22:48:00,
2013-01-08 17:53:00,47.3,36.2,28.17,East,90,0.0,0.0,65,0.00,,---,0.00,VWS V14.01,2013-01-08 22:53:00,
2013-01-08 17:58:00,47.1,36.0,28.17,East,90,0.0,0.0,65,0.00,,---,0.00,VWS V14.01,2013-01-08 22:58:00,
2013-01-08 18:03:00,46.8,36.0,28.17,East,90,0.0,0.0,66,0.00,,---,0.00,VWS V14.01,2013-01-08 23:03:00,
2013-01-08 18:08:00,46.4,35.7,28.17,East,90,0.0,0.0,66,0.00,,---,0.00,VWS V14.01,2013-01-08 23:08:00,
2013-01-08 18:13:00,46.4,36.0,28.17,East,90,0.0,0.0,67,0.00,,---,0.00,VWS V14.01,2013-01-08 23:13:00,
2013-01-08 18:18:00,46.0,36.1,28.17,East,90,0.0,0.0,68,0.00,,---,0.00,VWS V14.01,2013-01-08 23:18:00,
2013-01-08 18:23:00,45.9,35.9,28.17,ESE,112,0.0,0.0,68,0.00,,---,0.00,VWS V14.01,2013-01-08 23:23:00,
2013-01-08 18:28:00,45.5,35.9,28.17,ESE,112,0.0,0.0,69,0.00,,---,0.00,VWS V14.01,2013-01-08 23:28:00,
2013-01-08 18:33:00,45.3,36.1,28.17,ESE,112,0.0,0.0,70,0.00,,---,0.00,VWS V14.01,2013-01-08 23:33:00,
2013-01-08 18:38:00,45.0,35.8,28.17,ESE,112,0.0,0.0,70,0.00,,---,0.00,VWS V14.01,2013-01-08 23:38:00,
2013-01-08 18:43:00,44.8,36.0,28.17,East,90,0.0,0.0,71,0.00,,---,0.00,VWS V14.01,2013-01-08 23:43:00,
2013-01-08 18:48:00,44.6,35.8,28.17,North,0,0.0,0.0,71,0.00,,---,0.00,VWS V14.01,2013-01-08 23:48:00,
2013-01-08 18:53:00,44.4,36.0,28.17,ENE,68,0.0,0.0,72,0.00,,---,0.00,VWS V14.01,2013-01-08 23:53:00,
2013-01-08 18:59:00,44.2,36.2,28.17,NE,45,0.0,0.0,73,0.00,,---,0.00,VWS V14.01,2013-01-08 23:59:00,
2013-01-08 19:04:00,44.2,36.5,28.17,SE,135,0.0,0.0,74,0.00,,---,0.00,VWS V14.01,2013-01-09 00:04:00,
2013-01-08 19:09:00,45.0,37.9,28.17,NE,45,0.0,1.1,76,0.00,,---,0.00,VWS V14.01,2013-01-09 00:09:00,
2013-01-08 19:14:00,45.1,38.4,28.17,East,90,0.0,1.1,77,0.00,,---,0.00,VWS V14.01,2013-01-09 00:14:00,
2013-01-08 19:19:00,45.1,38.4,28.17,ENE,68,0.0,1.3,77,0.00,,---,0.00,VWS V14.01,2013-01-09 00:19:00,
2013-01-08 19:24:00,45.3,38.5,28.17,SE,135,0.0,0.0,77,0.00,,---,0.00,VWS V14.01,2013-01-09 00:24:00,
2013-01-08 19:29:00,45.5,39.0,28.17,SE,135,0.0,0.0,78,0.00,,---,0.00,VWS V14.01,2013-01-09 00:29:00,
2013-01-08 19:34:00,45.5,39.4,28.17,NNE,22,0.0,2.0,79,0.00,,---,0.00,VWS V14.01,2013-01-09 00:34:00,
2013-01-08 19:39:00,45.5,38.7,28.17,South,180,3.1,3.1,77,0.00,,---,0.00,VWS V14.01,2013-01-09 00:39:00,
2013-01-08 19:44:00,45.3,38.9,28.17,East,90,0.0,0.0,78,0.00,,---,0.00,VWS V14.01,2013-01-09 00:44:00,
2013-01-08 19:49:00,45.3,38.9,28.17,East,90,0.9,1.6,78,0.00,,---,0.00,VWS V14.01,2013-01-09 00:49:00,
2013-01-08 19:54:00,45.3,39.8,28.17,East,90,2.0,3.4,81,0.00,,---,0.00,VWS V14.01,2013-01-09 00:54:00,
2013-01-08 19:59:00,45.3,40.2,28.17,East,90,2.0,3.6,82,0.00,,---,0.00,VWS V14.01,2013-01-09 00:59:00,
2013-01-08 20:04:00,45.5,40.7,28.17,SE,135,0.0,0.0,83,0.00,,---,0.00,VWS V14.01,2013-01-09 01:04:00,
2013-01-08 20:09:00,45.3,40.5,28.17,East,90,1.3,1.3,83,0.00,,---,0.00,VWS V14.01,2013-01-09 01:09:00,
2013-01-08 20:14:00,45.3,40.5,28.17,SSE,158,1.3,1.3,83,0.00,,---,0.00,VWS V14.01,2013-01-09 01:14:00,
2013-01-08 20:19:00,45.3,40.8,28.17,ESE,112,0.9,0.9,84,0.00,,---,0.00,VWS V14.01,2013-01-09 01:19:00,
2013-01-08 20:24:00,45.3,40.8,28.17,East,90,1.1,1.1,84,0.00,,---,0.00,VWS V14.01,2013-01-09 01:24:00,
2013-01-08 20:30:00,45.1,40.6,28.17,ESE,112,0.9,0.9,84,0.00,,---,0.00,VWS V14.01,2013-01-09 01:30:00,
2013-01-08 20:35:00,45.3,40.8,28.17,East,90,0.0,0.0,84,0.00,,---,0.00,VWS V14.01,2013-01-09 01:35:00,
2013-01-08 20:40:00,45.3,40.8,28.17,ESE,112,3.8,3.8,84,0.00,,---,0.00,VWS V14.01,2013-01-09 01:40:00,
2013-01-08 20:45:00,45.3,40.8,28.17,SE,135,1.3,2.7,84,0.00,,---,0.00,VWS V14.01,2013-01-09 01:45:00,
2013-01-08 20:50:00,45.3,41.1,28.17,SSE,158,0.9,1.3,85,0.00,,---,0.00,VWS V14.01,2013-01-09 01:50:00,
2013-01-08 20:55:00,45.3,41.1,28.17,SE,135,3.1,3.1,85,0.00,,---,0.00,VWS V14.01,2013-01-09 01:55:00,
2013-01-08 21:00:00,45.3,41.1,28.17,East,90,1.6,3.1,85,0.00,,---,0.00,VWS V14.01,2013-01-09 02:00:00,
2013-01-08 21:05:00,45.3,41.4,28.17,West,270,0.9,2.7,86,0.00,,---,0.00,VWS V14.01,2013-01-09 02:05:00,
2013-01-08 21:10:00,45.3,41.7,28.17,WNW,292,1.6,1.6,87,0.00,,---,0.00,VWS V14.01,2013-01-09 02:10:00,
2013-01-08 21:15:00,45.3,42.0,28.17,ESE,112,2.2,2.2,88,0.00,,---,0.00,VWS V14.01,2013-01-09 02:15:00,
2013-01-08 21:20:00,45.5,42.2,28.17,ESE,112,2.9,2.9,88,0.00,,---,0.00,VWS V14.01,2013-01-09 02:20:00,
2013-01-08 21:25:00,45.5,42.2,28.17,SE,135,0.0,1.6,88,0.00,,---,0.00,VWS V14.01,2013-01-09 02:25:00,
2013-01-08 21:30:00,45.3,42.0,28.17,ESE,112,0.0,0.0,88,0.00,,---,0.00,VWS V14.01,2013-01-09 02:30:00,
2013-01-08 21:35:00,45.3,42.0,28.17,East,90,0.0,2.9,88,0.00,,---,0.00,VWS V14.01,2013-01-09 02:35:00,
2013-01-08 21:40:00,45.3,42.0,28.17,ENE,68,0.0,1.3,88,0.00,,---,0.00,VWS V14.01,2013-01-09 02:40:00,
2013-01-08 21:45:00,45.3,41.7,28.17,ESE,112,0.0,0.0,87,0.00,,---,0.00,VWS V14.01,2013-01-09 02:45:00,
2013-01-08 21:50:00,45.3,41.4,28.17,SE,135,0.0,0.0,86,0.00,,---,0.00,VWS V14.01,2013-01-09 02:50:00,
2013-01-08 21:55:00,45.3,41.4,28.17,ESE,112,0.9,1.3,86,0.00,,---,0.00,VWS V14.01,2013-01-09 02:55:00,
2013-01-08 22:01:00,45.1,41.2,28.17,ESE,112,0.0,2.7,86,0.00,,---,0.00,VWS V14.01,2013-01-09 03:01:00,
2013-01-08 22:06:00,45.0,40.7,28.17,South,180,0.0,0.0,85,0.00,,---,0.00,VWS V14.01,2013-01-09 03:06:00,
2013-01-08 22:11:00,44.8,40.5,28.17,ESE,112,0.0,2.0,85,0.00,,---,0.00,VWS V14.01,2013-01-09 03:11:00,
2013-01-08 22:16:00,44.8,40.5,28.17,ESE,112,2.5,2.5,85,0.00,,---,0.00,VWS V14.01,2013-01-09 03:16:00,
2013-01-08 22:21:00,45.0,41.0,28.17,SSE,158,0.0,1.6,86,0.00,,---,0.00,VWS V14.01,2013-01-09 03:21:00,
2013-01-08 22:26:00,45.1,41.2,28.17,South,180,0.0,2.0,86,0.00,,---,0.00,VWS V14.01,2013-01-09 03:26:00,
2013-01-08 22:31:00,45.1,41.5,28.17,SSE,158,0.0,0.9,87,0.00,,---,0.00,VWS V14.01,2013-01-09 03:31:00,
2013-01-08 22:36:00,45.3,42.0,28.17,East,90,0.0,0.9,88,0.00,,---,0.00,VWS V14.01,2013-01-09 03:36:00,
2013-01-08 22:41:00,45.3,42.3,28.17,SE,135,0.0,2.7,89,0.00,,---,0.00,VWS V14.01,2013-01-09 03:41:00,
2013-01-08 22:46:00,45.3,42.6,28.17,SSE,158,0.0,1.6,90,0.00,,---,0.00,VWS V14.01,2013-01-09 03:46:00,
2013-01-08 22:51:00,45.5,43.3,28.17,NE,45,2.5,2.5,92,0.00,,---,0.00,VWS V14.01,2013-01-09 03:51:00,
2013-01-08 22:56:00,45.7,43.8,28.17,ESE,112,2.0,2.0,93,0.00,,---,0.00,VWS V14.01,2013-01-09 03:56:00,
2013-01-08 23:01:00,45.9,44.2,28.17,SE,135,2.0,3.4,94,0.00,,---,0.00,VWS V14.01,2013-01-09 04:01:00,
2013-01-08 23:06:00,46.0,44.4,28.17,SSW,202,2.7,3.6,94,0.00,,---,0.00,VWS V14.01,2013-01-09 04:06:00,
2013-01-08 23:11:00,46.0,44.7,28.17,SSW,202,3.1,3.1,95,0.00,,---,0.00,VWS V14.01,2013-01-09 04:11:00,
2013-01-08 23:16:00,46.0,44.7,28.17,ESE,112,2.9,2.9,95,0.00,,---,0.00,VWS V14.01,2013-01-09 04:16:00,
2013-01-08 23:21:00,46.0,44.4,28.17,SE,135,2.9,2.9,94,0.00,,---,0.00,VWS V14.01,2013-01-09 04:21:00,
2013-01-08 23:26:00,45.9,44.2,28.17,ENE,68,0.9,1.1,94,0.00,,---,0.00,VWS V14.01,2013-01-09 04:26:00,
2013-01-08 23:31:00,45.7,44.1,28.17,East,90,0.0,1.1,94,0.00,,---,0.00,VWS V14.01,2013-01-09 04:31:00,
2013-01-08 23:36:00,45.7,44.1,28.17,SE,135,1.1,2.0,94,0.00,,---,0.00,VWS V14.01,2013-01-09 04:36:00,
2013-01-08 23:41:00,45.5,43.9,28.17,SW,225,0.0,1.6,94,0.00,,---,0.00,VWS V14.01,2013-01-09 04:41:00,
2013-01-08 23:46:00,45.5,43.9,28.17,WSW,248,0.0,0.0,94,0.00,,---,0.00,VWS V14.01,2013-01-09 04:46:00,
2013-01-08 23:51:00,45.5,43.9,28.17,SSW,202,0.0,0.0,94,0.00,,---,0.00,VWS V14.01,2013-01-09 04:51:00,
2013-01-08 23:56:00,45.5,43.9,28.17,SSE,158,0.0,2.0,94,0.00,,---,0.00,VWS V14.01,2013-01-09 04:56:00,